EW6753 Weather Reports


time (UTC)temp
F
wind
direction
speed
knots
gust
knots
rain 1hr
in
rain 24hr
in
rain mn
in
humidity
%
barometer
mb
20230127233004 18 288 3.5 7.8 0.00 0.00 0.00 65 1010.6
20230127232503 18 286 4.3 11.3 0.00 0.00 0.00 65 1010.6
20230127232003 18 284 6.1 13.0 0.00 0.00 0.00 64 1010.5
20230127231503 19 280 5.2 13.0 0.00 0.00 0.00 64 1010.2
20230127231003 19 276 5.2 13.0 0.00 0.00 0.00 64 1010.1
20230127230503 19 276 5.2 12.2 0.00 0.00 0.00 64 1010.0
20230127230003 20 278 5.2 12.2 0.00 0.00 0.00 64 1009.9
20230127225504 20 279 6.1 13.9 0.00 0.00 0.00 63 1009.7
20230127225024 20 273 6.1 13.9 0.00 0.00 0.00 63 1009.7
20230127224504 20 269 4.3 12.2 0.00 0.00 0.00 63 1009.5
20230127224003 21 283 4.3 9.6 0.00 0.00 0.00 62 1009.2
20230127223503 21 293 4.3 9.6 0.00 0.00 0.00 62 1009.1
20230127223003 21 291 6.1 13.0 0.00 0.00 0.00 62 1009.0
20230127222504 21 288 7.0 13.0 0.00 0.00 0.00 61 1008.9
20230127222003 21 282 7.0 13.0 0.00 0.00 0.00 62 1008.8
20230127221503 22 274 6.1 12.2 0.00 0.00 0.00 62 1008.7
20230127221024 22 276 6.1 10.4 0.00 0.00 0.00 62 1008.6
20230127220503 22 278 6.1 16.5 0.00 0.00 0.00 62 1008.4
20230127220003 22 281 6.1 16.5 0.00 0.00 0.00 61 1008.2
20230127215503 22 290 6.1 14.8 0.00 0.00 0.00 61 1008.2
20230127215003 23 291 5.2 14.8 0.00 0.00 0.00 61 1008.1
20230127214503 23 298 5.2 12.2 0.00 0.00 0.00 62 1007.9
20230127214003 23 299 5.2 13.0 0.00 0.00 0.00 61 1007.8
20230127213503 23 298 5.2 14.8 0.00 0.00 0.00 61 1007.8
20230127213004 23 290 5.2 14.8 0.00 0.00 0.00 61 1007.6
20230127212504 23 293 5.2 12.2 0.00 0.00 0.00 63 1007.6
20230127212003 23 300 5.2 12.2 0.00 0.00 0.00 63 1007.5
20230127211503 23 301 5.2 12.2 0.00 0.00 0.00 63 1007.4
20230127211003 23 301 6.1 13.9 0.00 0.00 0.00 63 1007.4
20230127210503 23 296 7.0 19.1 0.00 0.00 0.00 63 1007.3
20230127210003 23 290 7.0 19.1 0.00 0.00 0.00 62 1007.1
20230127205503 23 283 6.1 13.0 0.00 0.00 0.00 63 1007.0
20230127205003 23 280 5.2 13.0 0.00 0.00 0.00 64 1006.9
20230127204524 23 280 5.2 12.2 0.00 0.00 0.00 66 1006.8
20230127204003 24 275 6.1 13.9 0.00 0.00 0.00 65 1006.7
20230127203503 23 271 6.1 13.9 0.00 0.00 0.00 67 1006.7
20230127203003 23 274 5.2 12.2 0.00 0.00 0.00 68 1006.6
20230127202503 23 275 6.1 13.9 0.00 0.00 0.00 68 1006.6
20230127202024 23 284 7.0 13.9 0.00 0.00 0.00 68 1006.6
20230127201503 23 287 7.8 13.9 0.00 0.00 0.00 68 1006.4
20230127201003 23 280 7.0 13.0 0.00 0.00 0.00 68 1006.3
20230127200503 23 273 7.0 13.0 0.00 0.00 0.00 68 1006.3
20230127200003 23 270 7.0 14.8 0.00 0.00 0.00 69 1006.2
20230127195503 23 275 7.0 14.8 0.00 0.00 0.00 69 1006.1
20230127195003 23 277 7.0 15.6 0.00 0.00 0.00 69 1006.0
20230127194504 23 284 7.0 17.4 0.00 0.00 0.00 69 1005.9
20230127194004 23 285 8.7 17.4 0.00 0.00 0.00 68 1005.9
20230127193503 23 277 9.6 21.7 0.00 0.00 0.00 68 1005.8
20230127193025 23 275 8.7 21.7 0.00 0.00 0.00 68 1005.7
20230127192504 24 282 7.8 14.8 0.00 0.00 0.00 68 1005.7
20230127192003 24 284 8.7 19.1 0.00 0.00 0.00 68 1005.6
20230127191503 24 282 7.8 19.1 0.00 0.00 0.00 68 1005.5
20230127191024 24 280 7.0 17.4 0.00 0.00 0.00 68 1005.3
20230127190524 24 278 7.0 14.8 0.00 0.00 0.00 68 1005.4
20230127190003 25 275 6.1 13.9 0.00 0.00 0.00 68 1005.3
20230127185503 25 278 7.0 16.5 0.00 0.00 0.00 68 1005.1
20230127185004 25 277 8.7 22.6 0.00 0.00 0.00 68 1005.1
20230127184505 25 272 8.7 22.6 0.00 0.00 0.00 68 1004.9
20230127184004 25 278 7.8 17.4 0.00 0.00 0.00 69 1004.9
20230127183524 25 281 7.0 15.6 0.00 0.00 0.00 70 1004.8
20230127183003 25 274 7.0 16.5 0.00 0.00 0.00 70 1004.7
20230127182504 25 271 7.0 16.5 0.00 0.00 0.00 70 1004.6
20230127182003 25 269 7.0 16.5 0.00 0.00 0.00 69 1004.7
20230127181524 25 275 7.8 14.8 0.00 0.00 0.00 69 1004.7
20230127181003 25 281 8.7 19.1 0.00 0.00 0.00 69 1004.7
20230127180503 25 275 7.8 19.1 0.00 0.00 0.00 69 1004.7
20230127180003 25 275 7.8 15.6 0.00 0.00 0.00 69 1004.4
20230127175503 26 283 7.8 15.6 0.00 0.00 0.00 69 1004.3
20230127175024 26 285 7.0 15.6 0.00 0.00 0.00 70 1004.1
20230127174503 26 286 7.0 15.6 0.00 0.00 0.00 70 1003.8
20230127174024 26 287 7.0 13.9 0.00 0.00 0.00 70 1003.8
20230127173524 27 284 7.8 13.9 0.00 0.00 0.00 71 1003.8
20230127173004 27 276 6.1 13.9 0.00 0.00 0.00 73 1003.8
20230127172505 26 276 6.1 11.3 0.00 0.00 0.00 75 1003.7
20230127172004 26 281 7.8 20.0 0.00 0.00 0.00 76 1003.7
20230127171504 26 281 9.6 20.0 0.00 0.00 0.00 76 1003.6
20230127171005 26 282 10.4 18.2 0.00 0.00 0.00 78 1003.6
20230127170504 25 284 10.4 17.4 0.00 0.00 0.00 78 1003.6
20230127170003 25 286 10.4 21.7 0.00 0.00 0.00 79 1003.5
20230127165503 25 290 8.7 21.7 0.00 0.00 0.00 80 1003.4
20230127165003 25 295 7.0 16.5 0.00 0.00 0.00 80 1003.3
20230127164525 25 294 7.8 18.2 0.00 0.00 0.00 80 1003.1
20230127164003 25 294 8.7 18.2 0.00 0.00 0.00 80 1003.1
20230127163503 25 288 9.6 18.2 0.00 0.00 0.00 81 1003.0
20230127163003 26 283 8.7 17.4 0.00 0.00 0.00 81 1002.7
20230127162503 26 282 8.7 17.4 0.00 0.00 0.00 82 1002.6
20230127162003 26 284 9.6 26.9 0.00 0.00 0.00 83 1002.4
20230127161503 26 288 8.7 26.9 0.00 0.00 0.00 83 1002.2
20230127161004 27 287 7.0 14.8 0.00 0.00 0.00 84 1002.1
20230127160504 27 289 7.8 16.5 0.00 0.00 0.00 85 1001.9
20230127160004 27 287 9.6 16.5 0.00 0.00 0.00 85 1001.8
20230127155504 27 284 9.6 21.7 0.00 0.00 0.00 85 1001.6
20230127155004 27 286 9.6 21.7 0.00 0.00 0.00 86 1001.4
20230127154504 28 283 7.8 13.9 0.00 0.00 0.00 87 1001.2
20230127154025 28 278 7.8 16.5 0.00 0.00 0.00 87 1001.1
20230127153524 28 279 7.8 16.5 0.00 0.00 0.00 87 1001.0
20230127153004 28 279 7.8 15.6 0.00 0.00 0.00 88 1000.8
20230127152504 28 286 7.0 15.6 0.00 0.00 0.00 88 1000.7
20230127152003 29 293 6.1 13.0 0.00 0.00 0.00 88 1000.5
20230127151504 29 285 6.1 13.0 0.00 0.00 0.00 89 1000.3
20230127151003 29 284 6.1 13.9 0.00 0.00 0.00 89 999.9
20230127150524 30 283 6.1 13.9 0.00 0.00 0.00 89 999.9
20230127150003 30 274 7.0 19.1 0.00 0.00 0.00 89 999.7
20230127145503 30 278 7.0 19.1 0.00 0.00 0.00 90 999.4
20230127145004 30 288 6.1 15.6 0.00 0.00 0.00 90 999.3
20230127144503 31 283 7.0 15.6 0.00 0.00 0.00 90 999.1
20230127144004 31 283 8.7 14.8 0.00 0.00 0.00 90 998.9
20230127143504 31 288 6.1 13.9 0.00 0.00 0.00 91 998.8
20230127143025 32 289 5.2 20.0 0.00 0.00 0.00 91 998.5
20230127142503 32 286 7.0 20.0 0.00 0.00 0.00 91 998.5
20230127142004 32 281 7.8 18.2 0.00 0.00 0.00 91 998.3
20230127141503 32 279 7.0 18.2 0.00 0.00 0.00 91 998.1
20230127141003 33 275 7.0 15.6 0.00 0.00 0.00 92 997.9
20230127140503 33 276 7.0 15.6 0.00 0.00 0.00 92 997.7
20230127140003 32 284 5.2 12.2 0.00 0.00 0.00 92 997.4
20230127135502 32 284 5.2 10.4 0.00 0.00 0.00 92 997.2
20230127135023 32 284 4.3 9.6 0.00 0.00 0.00 92 997.1
20230127134502 32 285 4.3 10.4 0.00 0.00 0.00 92 996.9
20230127134002 31 284 3.5 10.4 0.00 0.00 0.00 92 996.7
20230127133502 31 286 3.5 8.7 0.00 0.00 0.00 92 996.6
20230127133003 31 285 4.3 10.4 0.00 0.00 0.00 92 996.7
20230127132502 30 283 3.5 12.2 0.00 0.00 0.00 91 996.6
20230127132002 30 289 1.7 12.2 0.00 0.00 0.00 91 996.6
20230127131502 30 289 0.0 2.6 0.00 0.00 0.00 91 996.4
20230127131002 29 252 0.0 0.9 0.00 0.00 0.00 91 996.3
20230127130503 29 255 0.0 3.5 0.00 0.00 0.00 91 996.2
20230127130003 29 256 0.0 3.5 0.00 0.00 0.00 91 996.1
20230127125502 29 261 0.0 0.9 0.00 0.00 0.00 91 996.1
20230127125002 29 264 0.0 0.9 0.00 0.00 0.00 91 996.0
20230127124503 28 280 0.0 2.6 0.00 0.00 0.00 91 995.9
20230127124025 28 284 0.0 2.6 0.00 0.00 0.00 91 995.8
20230127123524 28 229 0.0 1.7 0.00 0.00 0.00 91 995.7
20230127123002 28 178 0.9 5.2 0.00 0.00 0.00 90 995.7
20230127122503 28 180 0.9 5.2 0.00 0.00 0.00 90 995.7
20230127122002 28 191 0.9 3.5 0.00 0.00 0.00 90 995.7
20230127121503 28 193 0.0 3.5 0.00 0.00 0.00 91 995.5
20230127121002 28 199 0.9 3.5 0.00 0.00 0.00 91 995.5
20230127120523 28 201 0.9 3.5 0.00 0.00 0.00 91 995.5
20230127120002 27 186 1.7 4.3 0.00 0.00 0.00 90 995.5
20230127115502 27 180 1.7 4.3 0.00 0.00 0.00 90 995.4
20230127115002 27 183 0.9 4.3 0.00 0.00 0.00 90 995.4
20230127114502 27 188 1.7 4.3 0.00 0.00 0.00 91 995.4
20230127114003 27 187 1.7 4.3 0.00 0.00 0.00 91 995.4
20230127113502 27 190 1.7 5.2 0.00 0.00 0.00 90 995.5
20230127113023 27 192 1.7 7.0 0.00 0.00 0.00 90 995.4
20230127112503 27 190 2.6 7.0 0.00 0.00 0.00 90 995.5
20230127112002 26 191 2.6 6.1 0.00 0.00 0.00 90 995.6
20230127111523 26 187 2.6 7.0 0.00 0.00 0.00 90 995.6
20230127111002 26 185 1.7 9.6 0.00 0.00 0.00 90 995.6
20230127110523 26 183 1.7 9.6 0.00 0.00 0.00 90 995.6
20230127110003 26 176 1.7 6.1 0.00 0.00 0.00 90 995.7
20230127105503 26 189 1.7 6.1 0.00 0.00 0.00 90 995.9
20230127105024 26 193 2.6 6.1 0.00 0.00 0.00 90 995.9
20230127104503 26 180 2.6 6.1 0.00 0.00 0.00 90 996.0
20230127104002 25 174 2.6 7.0 0.00 0.00 0.00 90 996.0
20230127103502 25 176 2.6 7.0 0.00 0.00 0.00 90 996.0
20230127103002 25 184 2.6 7.0 0.00 0.00 0.00 90 996.1
20230127102502 25 178 2.6 7.8 0.00 0.00 0.00 90 996.1
20230127102002 25 179 2.6 7.8 0.00 0.00 0.00 90 996.2
20230127101524 25 180 2.6 9.6 0.00 0.00 0.00 90 996.1
20230127101002 25 179 3.5 11.3 0.00 0.00 0.00 90 996.1
20230127100502 25 183 4.3 11.3 0.00 0.00 0.00 90 996.3
20230127100003 24 182 3.5 9.6 0.00 0.00 0.00 89 996.3
20230127095502 24 181 3.5 8.7 0.00 0.00 0.00 89 996.4
20230127095002 24 182 4.3 9.6 0.00 0.00 0.00 89 996.5
20230127094523 24 183 4.3 9.6 0.00 0.00 0.00 89 996.6
20230127094002 24 182 3.5 12.2 0.00 0.00 0.00 89 996.7
20230127093503 23 176 4.3 12.2 0.00 0.00 0.00 89 996.9
20230127093003 23 176 4.3 10.4 0.00 0.00 0.00 89 996.9
20230127092502 23 175 4.3 10.4 0.00 0.00 0.00 89 997.1
20230127092023 23 178 3.5 9.6 0.00 0.00 0.00 89 997.1
20230127091502 22 182 3.5 8.7 0.00 0.00 0.00 89 997.3
20230127091002 22 176 3.5 9.6 0.00 0.00 0.00 89 997.4
20230127090503 22 174 2.6 9.6 0.00 0.00 0.00 88 997.4
20230127090002 22 178 2.6 7.8 0.00 0.00 0.00 88 997.5
20230127085503 21 181 2.6 7.0 0.00 0.00 0.00 88 997.7
20230127085003 21 178 2.6 7.8 0.00 0.00 0.00 88 997.8
20230127084503 21 178 3.5 9.6 0.00 0.00 0.00 88 997.8
20230127084024 21 178 3.5 12.2 0.00 0.00 0.00 88 998.1
20230127083503 20 175 2.6 12.2 0.00 0.00 0.00 88 998.2
20230127083002 20 179 3.5 10.4 0.00 0.00 0.00 88 998.3
20230127082503 20 179 3.5 9.6 0.00 0.00 0.00 88 998.5
20230127082003 20 177 3.5 9.6 0.00 0.00 0.00 88 998.6
20230127081503 20 176 3.5 9.6 0.00 0.00 0.00 88 998.8
20230127081002 19 179 2.6 9.6 0.00 0.00 0.00 87 998.9
20230127080524 19 172 2.6 9.6 0.00 0.00 0.00 87 999.0
20230127080003 19 164 2.6 7.0 0.00 0.00 0.00 87 999.1
20230127075503 19 169 2.6 9.6 0.00 0.00 0.00 87 999.3
20230127075002 18 176 3.5 9.6 0.00 0.00 0.00 87 999.4
20230127074502 18 182 2.6 8.7 0.00 0.00 0.00 87 999.6
20230127074002 18 176 2.6 8.7 0.00 0.00 0.00 87 999.8
20230127073502 18 169 1.7 6.1 0.00 0.00 0.00 87 999.8
20230127073002 18 174 2.6 11.3 0.00 0.00 0.00 86 999.8
20230127072502 18 179 3.5 11.3 0.00 0.00 0.00 86 1000.0
20230127072002 18 176 3.5 8.7 0.00 0.00 0.00 86 1000.1
20230127071523 17 170 3.5 8.7 0.00 0.00 0.00 86 1000.2
20230127071003 17 166 3.5 10.4 0.00 0.00 0.00 86 1000.4
20230127070524 17 167 3.5 11.3 0.00 0.00 0.00 86 1000.4
20230127070004 17 168 3.5 11.3 0.00 0.00 0.00 86 1000.6
20230127065524 17 173 2.6 10.4 0.00 0.00 0.00 86 1000.7
20230127065002 17 174 2.6 10.4 0.00 0.00 0.00 86 1000.9
20230127064502 17 171 3.5 7.8 0.00 0.00 0.00 85 1001.1
20230127064003 17 169 3.5 10.4 0.00 0.00 0.00 85 1001.3
20230127063502 16 166 3.5 10.4 0.00 0.00 0.00 85 1001.4
20230127063002 16 167 3.5 8.7 0.00 0.00 0.00 85 1001.7
20230127062523 16 168 2.6 8.7 0.00 0.00 0.00 85 1001.9
20230127062002 16 165 2.6 7.0 0.00 0.00 0.00 85 1002.0
20230127061503 16 170 2.6 10.4 0.00 0.00 0.00 84 1002.2
20230127061024 16 172 3.5 10.4 0.00 0.00 0.00 84 1002.4
20230127060503 16 169 3.5 9.6 0.00 0.00 0.00 84 1002.6
20230127060003 16 166 3.5 7.8 0.00 0.00 0.00 84 1002.8
20230127055503 16 165 3.5 10.4 0.00 0.00 0.00 84 1002.8
20230127055002 16 163 2.6 10.4 0.00 0.00 0.00 84 1002.9
20230127054502 16 159 3.5 13.9 0.00 0.00 0.00 84 1003.2
20230127054002 16 160 3.5 13.9 0.00 0.00 0.00 84 1003.3
20230127053502 15 156 3.5 8.7 0.00 0.00 0.00 83 1003.5
20230127053023 15 151 2.6 8.7 0.00 0.00 0.00 83 1003.6
20230127052502 15 161 2.6 9.6 0.00 0.00 0.00 83 1003.8
20230127052003 15 164 3.5 9.6 0.00 0.00 0.00 83 1004.0
20230127051504 15 172 2.6 8.7 0.00 0.00 0.00 82 1004.2
20230127051003 15 170 2.6 7.0 0.00 0.00 0.00 82 1004.4
20230127050503 15 156 3.5 8.7 0.00 0.00 0.00 82 1004.4
20230127050004 15 159 2.6 11.3 0.00 0.00 0.00 82 1004.5
20230127045503 16 160 2.6 11.3 0.00 0.00 0.00 82 1004.7
20230127045003 16 157 1.7 7.8 0.00 0.00 0.00 82 1005.0
20230127044503 16 152 2.6 7.8 0.00 0.00 0.00 82 1005.2
20230127044003 16 157 2.6 8.7 0.00 0.00 0.00 82 1005.5
20230127043503 15 166 2.6 8.7 0.00 0.00 0.00 82 1005.8
20230127043002 15 171 2.6 7.8 0.00 0.00 0.00 82 1006.0
20230127042502 15 175 3.5 7.8 0.00 0.00 0.00 82 1006.2
20230127042002 15 175 2.6 7.8 0.00 0.00 0.00 81 1006.3
20230127041523 15 171 2.6 9.6 0.00 0.00 0.00 81 1006.4
20230127041003 15 173 2.6 9.6 0.00 0.00 0.00 81 1006.7
20230127040503 15 173 2.6 7.0 0.00 0.00 0.00 81 1006.8
20230127040003 15 176 3.5 8.7 0.00 0.00 0.00 81 1006.9
20230127035503 15 175 3.5 9.6 0.00 0.00 0.00 81 1007.1
20230127035003 14 175 4.3 11.3 0.00 0.00 0.00 81 1007.1
20230127034504 14 179 4.3 11.3 0.00 0.00 0.00 81 1007.4
20230127034003 14 181 3.5 9.6 0.00 0.00 0.00 81 1007.5
20230127033502 14 174 3.5 12.2 0.00 0.00 0.00 81 1007.7
20230127033002 14 174 4.3 12.2 0.00 0.00 0.00 81 1007.9
20230127032502 14 181 4.3 11.3 0.00 0.00 0.00 81 1008.0
20230127032002 14 183 3.5 7.8 0.00 0.00 0.00 81 1008.2
20230127031502 14 180 2.6 8.7 0.00 0.00 0.00 81 1008.2
20230127031002 14 183 3.5 8.7 0.00 0.00 0.00 82 1008.3
20230127030523 14 184 3.5 7.8 0.00 0.00 0.00 81 1008.5
20230127030002 14 179 4.3 9.6 0.00 0.00 0.00 81 1008.7
20230127025523 14 179 4.3 9.6 0.00 0.00 0.00 81 1008.8
20230127025003 14 176 3.5 9.6 0.00 0.00 0.00 81 1008.8
20230127024503 14 170 2.6 9.6 0.00 0.00 0.00 81 1008.8
20230127024003 14 169 3.5 7.8 0.00 0.00 0.00 81 1008.8
20230127023503 14 164 3.5 7.8 0.00 0.00 0.00 81 1008.9
20230127023003 14 163 2.6 8.7 0.00 0.00 0.00 81 1009.1
20230127022523 14 172 3.5 8.7 0.00 0.00 0.00 81 1009.2
20230127022023 14 175 3.5 8.7 0.00 0.00 0.00 81 1009.5
20230127021502 14 179 3.5 8.7 0.00 0.00 0.00 81 1009.7
20230127021002 14 176 3.5 8.7 0.00 0.00 0.00 81 1009.9
20230127020523 14 176 3.5 8.7 0.00 0.00 0.00 80 1010.1
20230127020003 14 178 2.6 8.7 0.00 0.00 0.00 80 1010.1
20230127015502 14 178 2.6 7.0 0.00 0.00 0.00 80 1010.2
20230127015003 13 178 2.6 7.0 0.00 0.00 0.00 80 1010.3
20230127014502 13 176 2.6 7.8 0.00 0.00 0.00 79 1010.5
20230127014024 13 172 2.6 10.4 0.00 0.00 0.00 79 1010.6
20230127013503 13 173 3.5 10.4 0.00 0.00 0.00 79 1010.9
20230127013003 13 180 3.5 8.7 0.00 0.00 0.00 79 1011.1
20230127012524 13 183 3.5 8.7 0.00 0.00 0.00 79 1011.3
20230127012002 14 181 3.5 8.7 0.00 0.00 0.00 79 1011.6
20230127011502 14 183 2.6 7.8 0.00 0.00 0.00 78 1011.7
20230127011002 14 191 1.7 7.0 0.00 0.00 0.00 78 1011.9
20230127010523 14 191 1.7 8.7 0.00 0.00 0.00 78 1012.1
20230127010003 14 191 2.6 8.7 0.00 0.00 0.00 77 1012.3
20230127005503 13 188 2.6 8.7 0.00 0.00 0.00 77 1012.4
20230127005003 13 185 2.6 7.0 0.00 0.00 0.00 77 1012.4
20230127004503 13 188 1.7 7.0 0.00 0.00 0.00 78 1012.5
20230127004003 13 186 1.7 7.0 0.00 0.00 0.00 78 1012.6
20230127003502 13 180 1.7 6.1 0.00 0.00 0.00 78 1012.7
20230127003002 12 176 0.9 4.3 0.00 0.00 0.00 78 1012.7
20230127002502 12 181 0.9 4.3 0.00 0.00 0.00 78 1012.7
20230127002002 12 188 0.0 2.6 0.00 0.00 0.00 78 1012.7
20230127001502 12 188 0.0 2.6 0.00 0.00 0.00 78 1012.8
20230127001024 11 188 0.0 2.6 0.00 0.00 0.00 78 1012.7
20230127000503 11 188 0.0 2.6 0.00 0.00 0.00 77 1012.7
20230127000003 11 179 0.0 2.6 0.00 0.00 0.00 76 1012.7
20230126235503 11 186 0.9 4.3 0.00 0.00 0.00 76 1012.6
20230126235003 11 187 1.7 5.2 0.00 0.00 0.00 75 1012.5
20230126234502 11 185 1.7 5.2 0.00 0.00 0.00 75 1012.6
20230126234002 11 200 1.7 4.3 0.00 0.00 0.00 74 1012.6
20230126233524 12 230 0.9 2.6 0.00 0.00 0.00 74 1012.6